Weather History for KDNK - March, 2013

Change the Weather History Date:

Tuesday, March 5, 2013

  Actual Average (KPOE) Record (KPOE)
Temperature  
Mean Temperature 56 °F -  
Max Temperature 66 °F 64 °F 80 °F (1997)
Min Temperature 46 °F 44 °F 26 °F (2002)
Degree Days  
Heating Degree Days 9    
Growing Degree Days 6 (Base 50)    
Moisture  
Dew Point 43 °F    
Average Humidity 58    
Maximum Humidity 94    
Minimum Humidity 22    
Precipitation  
Precipitation 0.00 in - - ()
Sea Level Pressure  
Sea Level Pressure 30.05 in    
Wind  
Wind Speed 11 mph (WNW)    
Max Wind Speed 26 mph    
Max Gust Speed 40 mph    
Visibility 10 miles    
Events Rain    
Averages and records for this station are not official NWS values.
T = Trace of Precipitation, MM = Missing Value Source: NWS Daily Summary

Daily Weather History Graph

Daily Weather History Graph

Search for Another Location

Airport or City:

Trip Planner

Search our weather history database for the weather conditions in past years. The results will help you decide how hot, cold, wet, or windy it might be!

Date:

Astronomy

Mar. 05, 2013 Rise Set
Actual Time 6:34 AM CST 6:14 PM CST
Civil Twilight 6:10 AM CST 6:38 PM CST
Nautical Twilight 5:42 AM CST 7:06 PM CST
Astronomical Twilight 5:14 AM CST 7:34 PM CST
Moon 1:30 AM CST (3/5) 12:10 PM CST (3/5)
Length of Visible Light 12h 28m
Length of Day
11h 39m
Last Quarter, 40% of the Moon is Illuminated
Mar 5
Last Quarter
Mar 11
New
Mar 19
First Quarter
Mar 27
Full
Apr 2
Last Quarter

Hourly Weather History & Observations

Time (CST) Temp. Windchill Dew Point Humidity Pressure Visibility Wind Dir Wind Speed Gust Speed Precip Events Conditions
12:53 AM 64.0 °F - 57.9 °F 80% 29.85 in 10.0 mi South 9.2 mph 19.6 mph N/A   Overcast
1:20 AM 62.6 °F - 57.2 °F 82% 29.84 in 10.0 mi SSW 15.0 mph 21.9 mph N/A   Overcast
1:53 AM 63.0 °F - 57.9 °F 84% 29.84 in 10.0 mi SSW 9.2 mph 18.4 mph N/A   Overcast
2:53 AM 64.0 °F - 57.9 °F 80% 29.81 in 10.0 mi SSW 13.8 mph 27.6 mph N/A   Overcast
3:53 AM 64.0 °F - 59.0 °F 84% 29.83 in 10.0 mi SSW 12.7 mph 25.3 mph N/A   Overcast
4:53 AM 64.0 °F - 59.0 °F 84% 29.93 in 9.0 mi WSW 12.7 mph 18.4 mph 0.00 in Rain Light Rain
5:42 AM 62.6 °F - 60.8 °F 94% 29.93 in 10.0 mi SW 6.9 mph - 0.00 in   Overcast
5:53 AM 62.1 °F - 60.1 °F 93% 29.94 in 10.0 mi SW 6.9 mph - 0.00 in   Mostly Cloudy
6:53 AM 62.1 °F - 59.0 °F 90% 29.96 in 10.0 mi SW 5.8 mph - N/A   Overcast
7:45 AM 62.6 °F - 60.8 °F 94% 29.98 in 10.0 mi WSW 6.9 mph - N/A   Overcast
7:53 AM 63.0 °F - 60.1 °F 90% 29.98 in 10.0 mi WSW 8.1 mph - N/A   Overcast
8:05 AM 62.6 °F - 60.8 °F 94% 29.99 in 10.0 mi WSW 8.1 mph - N/A   Overcast
8:39 AM 59.0 °F - 46.4 °F 63% 30.04 in 10.0 mi NW 26.5 mph 40.3 mph 0.00 in   Overcast
8:53 AM 55.9 °F - 41.0 °F 57% 30.06 in 10.0 mi NW 21.9 mph 35.7 mph 0.00 in   Overcast
9:16 AM 55.4 °F - 41.0 °F 58% 30.08 in 10.0 mi NW 13.8 mph 26.5 mph N/A   Overcast
9:53 AM 57.9 °F - 41.0 °F 53% 30.09 in 10.0 mi NNW 10.4 mph 21.9 mph N/A   Mostly Cloudy
10:53 AM 61.0 °F - 39.0 °F 44% 30.10 in 10.0 mi NNW 15.0 mph 25.3 mph N/A   Clear
11:53 AM 64.0 °F - 37.9 °F 38% 30.11 in 10.0 mi NNW 11.5 mph 19.6 mph N/A   Clear
12:53 PM 66.0 °F - 33.1 °F 29% 30.10 in 10.0 mi North 17.3 mph 21.9 mph N/A   Clear
1:53 PM 66.9 °F - 33.1 °F 28% 30.10 in 10.0 mi North 10.4 mph 19.6 mph N/A   Clear
2:53 PM 66.0 °F - 26.1 °F 22% 30.11 in 10.0 mi NW 11.5 mph 26.5 mph N/A   Clear
3:53 PM 66.9 °F - 28.0 °F 23% 30.12 in 10.0 mi NNW 12.7 mph 18.4 mph N/A   Clear
4:53 PM 64.9 °F - 28.0 °F 25% 30.13 in 10.0 mi NNW 11.5 mph 19.6 mph N/A   Clear
5:53 PM 61.0 °F - 27.0 °F 27% 30.16 in 10.0 mi North 9.2 mph - N/A   Clear
6:53 PM 57.9 °F - 28.0 °F 32% 30.19 in 10.0 mi NNW 6.9 mph - N/A   Clear
7:53 PM 54.0 °F - 28.9 °F 38% 30.22 in 10.0 mi NW 3.5 mph - N/A   Clear
8:53 PM 52.0 °F - 28.0 °F 40% 30.25 in 10.0 mi NW 8.1 mph 18.4 mph N/A   Clear
9:53 PM 50.0 °F - 25.0 °F 38% 30.28 in 10.0 mi NNW 6.9 mph - N/A   Clear
10:53 PM 46.9 °F - 24.1 °F 41% 30.29 in 10.0 mi NNW 6.9 mph - N/A   Clear
11:53 PM 46.0 °F 42.5 °F 23.0 °F 40% 30.29 in 10.0 mi NNW 6.9 mph - N/A   Clear